Time,TemperatureF,DewpointF,PressureIn,WindDirection,WindDirectionDegrees,WindSpeedMPH,WindSpeedGustMPH,Humidity,HourlyPrecipIn,Conditions,Clouds,dailyrainin,SoftwareType,DateUTC
2013-05-10 00:02:00,60.0,60.0,-100.00,West,260,0.0,0.0,99,-99.99,,,-99.99,,2013-05-10 05:02:00,
2013-05-10 00:12:00,61.0,61.0,-100.00,SW,225,0.0,0.0,99,-99.99,,,-99.99,,2013-05-10 05:12:00,
2013-05-10 00:22:00,61.0,61.0,-100.00,SW,225,0.0,0.0,99,-99.99,,,-99.99,,2013-05-10 05:22:00,
2013-05-10 00:32:00,61.0,61.0,-100.00,SW,225,0.0,0.0,99,-99.99,,,-99.99,,2013-05-10 05:32:00,
2013-05-10 00:42:00,61.0,60.0,-100.00,SW,230,0.0,0.0,99,-99.99,,,-99.99,,2013-05-10 05:42:00,
2013-05-10 00:52:00,61.0,61.0,-100.00,SW,225,0.0,0.0,99,-99.99,,,-99.99,,2013-05-10 05:52:00,
2013-05-10 01:01:00,61.0,61.0,-100.00,SW,225,0.0,0.0,99,-99.99,,,-99.99,,2013-05-10 06:01:00,
2013-05-10 01:12:00,61.0,61.0,-100.00,SW,235,0.0,0.0,99,-99.99,,,-99.99,,2013-05-10 06:12:00,
2013-05-10 01:21:00,61.0,61.0,-100.00,SW,225,0.0,0.0,99,-99.99,,,-99.99,,2013-05-10 06:21:00,
2013-05-10 01:32:00,61.0,61.0,-100.00,SW,225,0.0,0.0,99,-99.99,,,-99.99,,2013-05-10 06:32:00,
2013-05-10 01:42:00,61.0,61.0,-100.00,SW,225,0.0,0.0,99,-99.99,,,-99.99,,2013-05-10 06:42:00,
2013-05-10 01:52:00,61.0,60.0,-100.00,SW,225,0.0,0.0,99,-99.99,,,-99.99,,2013-05-10 06:52:00,
2013-05-10 02:02:00,61.0,60.0,-100.00,SW,225,0.0,0.0,99,-99.99,,,-99.99,,2013-05-10 07:02:00,
2013-05-10 02:12:00,60.0,60.0,-100.00,WSW,240,0.0,0.0,99,-99.99,,,-99.99,,2013-05-10 07:12:00,
2013-05-10 02:22:00,60.0,60.0,-100.00,WSW,250,0.0,0.0,99,-99.99,,,-99.99,,2013-05-10 07:22:00,
2013-05-10 02:31:00,60.0,60.0,-100.00,WSW,250,0.0,0.0,99,-99.99,,,-99.99,,2013-05-10 07:31:00,
2013-05-10 02:42:00,60.0,60.0,-100.00,WSW,250,0.0,0.0,99,-99.99,,,-99.99,,2013-05-10 07:42:00,
2013-05-10 02:52:00,60.0,60.0,-100.00,WSW,250,0.0,0.0,99,-99.99,,,-99.99,,2013-05-10 07:52:00,
2013-05-10 03:02:00,60.0,60.0,-100.00,WSW,250,0.0,0.0,99,-99.99,,,-99.99,,2013-05-10 08:02:00,
2013-05-10 03:12:00,60.0,60.0,-100.00,West,265,0.0,0.0,99,-99.99,,,-99.99,,2013-05-10 08:12:00,
2013-05-10 03:22:00,60.0,60.0,-100.00,WSW,245,0.0,0.0,99,-99.99,,,-99.99,,2013-05-10 08:22:00,
2013-05-10 03:32:00,60.0,60.0,-100.00,WSW,245,0.0,0.0,99,-99.99,,,-99.99,,2013-05-10 08:32:00,
2013-05-10 03:42:00,60.0,60.0,-100.00,SW,220,2.0,5.0,99,-99.99,,,-99.99,,2013-05-10 08:42:00,
2013-05-10 03:52:00,60.0,60.0,-100.00,SW,225,1.0,4.0,99,-99.99,,,-99.99,,2013-05-10 08:52:00,
2013-05-10 04:01:00,60.0,60.0,-100.00,SW,225,1.0,4.0,99,-99.99,,,-99.99,,2013-05-10 09:01:00,
2013-05-10 04:11:00,60.0,60.0,-100.00,WSW,240,1.0,5.0,99,-99.99,,,-99.99,,2013-05-10 09:11:00,
2013-05-10 04:21:00,60.0,60.0,-100.00,SW,235,2.0,6.0,99,-99.99,,,-99.99,,2013-05-10 09:21:00,
2013-05-10 04:32:00,60.0,60.0,-100.00,SW,235,2.0,6.0,99,-99.99,,,-99.99,,2013-05-10 09:32:00,
2013-05-10 04:43:00,60.0,60.0,-100.00,SW,225,2.0,5.0,99,-99.99,,,-99.99,,2013-05-10 09:43:00,
2013-05-10 04:52:00,60.0,60.0,-100.00,West,260,1.0,8.0,99,-99.99,,,-99.99,,2013-05-10 09:52:00,
2013-05-10 05:03:00,60.0,60.0,-100.00,West,260,1.0,8.0,99,-99.99,,,-99.99,,2013-05-10 10:03:00,
2013-05-10 05:12:00,60.0,60.0,-100.00,West,280,1.0,8.0,99,-99.99,,,-99.99,,2013-05-10 10:12:00,
2013-05-10 05:23:00,60.0,60.0,-100.00,West,260,4.0,10.0,99,-99.99,,,-99.99,,2013-05-10 10:23:00,
2013-05-10 05:32:00,60.0,60.0,-100.00,West,260,4.0,10.0,99,-99.99,,,-99.99,,2013-05-10 10:32:00,
2013-05-10 05:42:00,60.0,60.0,-100.00,West,270,2.0,10.0,99,-99.99,,,-99.99,,2013-05-10 10:42:00,
2013-05-10 05:53:00,60.0,60.0,-100.00,SW,235,1.0,6.0,99,-99.99,,,-99.99,,2013-05-10 10:53:00,
2013-05-10 06:02:00,60.0,60.0,-100.00,SW,235,1.0,6.0,99,-99.99,,,-99.99,,2013-05-10 11:02:00,
2013-05-10 06:12:00,60.0,60.0,-100.00,West,275,0.0,6.0,99,-99.99,,,-99.99,,2013-05-10 11:12:00,
2013-05-10 06:22:00,60.0,60.0,-100.00,West,270,1.0,6.0,99,-99.99,,,-99.99,,2013-05-10 11:22:00,
2013-05-10 06:32:00,60.0,60.0,-100.00,West,270,1.0,6.0,99,-99.99,,,-99.99,,2013-05-10 11:32:00,
2013-05-10 06:42:00,60.0,60.0,-100.00,West,265,1.0,8.0,99,-99.99,,,-99.99,,2013-05-10 11:42:00,
2013-05-10 06:52:00,60.0,60.0,-100.00,WNW,285,0.0,0.0,99,-99.99,,,-99.99,,2013-05-10 11:52:00,
2013-05-10 07:01:00,60.0,60.0,-100.00,WNW,285,0.0,0.0,99,-99.99,,,-99.99,,2013-05-10 12:01:00,
2013-05-10 07:12:00,60.0,59.0,-100.00,West,280,0.0,0.0,99,-99.99,,,-99.99,,2013-05-10 12:12:00,
2013-05-10 07:21:00,60.0,59.0,-100.00,West,275,0.0,0.0,99,-99.99,,,-99.99,,2013-05-10 12:21:00,
2013-05-10 07:32:00,60.0,59.0,-100.00,West,275,0.0,0.0,99,-99.99,,,-99.99,,2013-05-10 12:32:00,
2013-05-10 07:42:00,60.0,59.0,-100.00,NW,305,0.0,0.0,99,-99.99,,,-99.99,,2013-05-10 12:42:00,
2013-05-10 07:52:00,60.0,59.0,-100.00,WNW,290,0.0,0.0,99,-99.99,,,-99.99,,2013-05-10 12:52:00,
2013-05-10 08:01:00,60.0,59.0,-100.00,WNW,290,0.0,0.0,99,-99.99,,,-99.99,,2013-05-10 13:01:00,
2013-05-10 08:11:00,59.0,59.0,-100.00,West,260,0.0,0.0,99,-99.99,,,-99.99,,2013-05-10 13:11:00,
2013-05-10 08:21:00,59.0,59.0,-100.00,SW,225,0.0,0.0,99,-99.99,,,-99.99,,2013-05-10 13:21:00,
2013-05-10 08:32:00,59.0,59.0,-100.00,SW,225,0.0,0.0,99,-99.99,,,-99.99,,2013-05-10 13:32:00,
2013-05-10 08:42:00,59.0,59.0,-100.00,West,270,0.0,0.0,99,-99.99,,,-99.99,,2013-05-10 13:42:00,
2013-05-10 08:52:00,59.0,59.0,-100.00,WSW,255,0.0,0.0,99,-99.99,,,-99.99,,2013-05-10 13:52:00,
2013-05-10 09:02:00,59.0,59.0,-100.00,WSW,255,0.0,0.0,99,-99.99,,,-99.99,,2013-05-10 14:02:00,
2013-05-10 09:11:00,60.0,60.0,-100.00,West,265,0.0,0.0,99,-99.99,,,-99.99,,2013-05-10 14:11:00,
2013-05-10 09:21:00,61.0,60.0,-100.00,West,265,0.0,0.0,99,-99.99,,,-99.99,,2013-05-10 14:21:00,
2013-05-10 09:32:00,61.0,60.0,-100.00,West,265,0.0,0.0,99,-99.99,,,-99.99,,2013-05-10 14:32:00,
2013-05-10 09:42:00,60.0,60.0,-100.00,West,260,0.0,0.0,99,-99.99,,,-99.99,,2013-05-10 14:42:00,
2013-05-10 09:52:00,61.0,61.0,-100.00,West,260,0.0,0.0,99,-99.99,,,-99.99,,2013-05-10 14:52:00,
2013-05-10 10:02:00,61.0,61.0,-100.00,West,260,0.0,0.0,99,-99.99,,,-99.99,,2013-05-10 15:02:00,
2013-05-10 10:20:00,-999.0,-99.9,-100.00,North,350,0.0,0.0,99,-99.99,,,-99.99,,2013-05-10 15:20:00,
2013-05-10 10:32:00,58.0,58.0,-100.00,NW,325,0.0,0.0,99,-99.99,,,-99.99,,2013-05-10 15:32:00,
2013-05-10 10:42:00,58.0,58.0,-100.00,NW,325,0.0,0.0,99,-99.99,,,-99.99,,2013-05-10 15:42:00,
2013-05-10 10:53:00,57.0,56.0,-100.00,NNW,340,0.0,0.0,99,-99.99,,,-99.99,,2013-05-10 15:53:00,
2013-05-10 11:02:00,57.0,56.0,-100.00,NNW,340,0.0,0.0,99,-99.99,,,-99.99,,2013-05-10 16:02:00,
2013-05-10 11:12:00,56.0,56.0,-100.00,NNW,340,0.0,0.0,99,-99.99,,,-99.99,,2013-05-10 16:12:00,
2013-05-10 11:23:00,56.0,56.0,-100.00,NNW,340,0.0,0.0,99,-99.99,,,-99.99,,2013-05-10 16:23:00,
2013-05-10 11:32:00,56.0,56.0,-100.00,NNW,340,0.0,0.0,99,-99.99,,,-99.99,,2013-05-10 16:32:00,
2013-05-10 11:42:00,56.0,56.0,-100.00,North,350,0.0,0.0,99,-99.99,,,-99.99,,2013-05-10 16:42:00,
2013-05-10 11:53:00,56.0,56.0,-100.00,NNW,335,0.0,0.0,99,-99.99,,,-99.99,,2013-05-10 16:53:00,
2013-05-10 12:02:00,56.0,56.0,-100.00,NNW,335,0.0,0.0,99,-99.99,,,-99.99,,2013-05-10 17:02:00,
2013-05-10 12:12:00,56.0,56.0,-100.00,NNW,335,0.0,0.0,99,-99.99,,,-99.99,,2013-05-10 17:12:00,
2013-05-10 12:22:00,56.0,56.0,-100.00,NNW,330,0.0,0.0,99,-99.99,,,-99.99,,2013-05-10 17:22:00,
2013-05-10 12:32:00,56.0,56.0,-100.00,NNW,330,0.0,0.0,99,-99.99,,,-99.99,,2013-05-10 17:32:00,
2013-05-10 12:42:00,56.0,56.0,-100.00,NNW,340,0.0,0.0,99,-99.99,,,-99.99,,2013-05-10 17:42:00,
2013-05-10 12:52:00,57.0,57.0,-100.00,NNW,330,0.0,0.0,99,-99.99,,,-99.99,,2013-05-10 17:52:00,
2013-05-10 13:10:00,-999.0,-99.9,-100.00,NNW,330,0.0,0.0,99,-99.99,,,-99.99,,2013-05-10 18:10:00,
2013-05-10 13:22:00,57.0,57.0,-100.00,NNW,335,0.0,0.0,98,-99.99,,,-99.99,,2013-05-10 18:22:00,
2013-05-10 13:34:00,57.0,57.0,-100.00,NNW,335,0.0,0.0,98,-99.99,,,-99.99,,2013-05-10 18:34:00,
2013-05-10 13:43:00,57.0,56.0,-100.00,NNW,340,0.0,0.0,98,-99.99,,,-99.99,,2013-05-10 18:43:00,
2013-05-10 13:54:00,56.0,56.0,-100.00,NW,315,0.0,0.0,98,-99.99,,,-99.99,,2013-05-10 18:54:00,
2013-05-10 14:01:00,57.0,55.0,-100.00,NW,325,0.0,0.0,92,-99.99,,,-99.99,,2013-05-10 19:01:00,
2013-05-10 14:02:00,56.0,56.0,-100.00,NW,315,0.0,0.0,98,-99.99,,,-99.99,,2013-05-10 19:02:00,
2013-05-10 14:11:00,58.0,57.0,-100.00,NW,310,0.0,0.0,96,-99.99,,,-99.99,,2013-05-10 19:11:00,
2013-05-10 14:21:00,57.0,55.0,-100.00,NW,315,0.0,0.0,93,-99.99,,,-99.99,,2013-05-10 19:21:00,
2013-05-10 14:32:00,57.0,55.0,-100.00,NW,315,0.0,0.0,93,-99.99,,,-99.99,,2013-05-10 19:32:00,
2013-05-10 14:42:00,57.0,55.0,-100.00,NW,325,0.0,0.0,92,-99.99,,,-99.99,,2013-05-10 19:42:00,
2013-05-10 14:52:00,57.0,55.0,-100.00,NW,325,0.0,0.0,92,-99.99,,,-99.99,,2013-05-10 19:52:00,
2013-05-10 15:12:00,57.0,55.0,-100.00,NW,320,0.0,0.0,91,-99.99,,,-99.99,,2013-05-10 20:12:00,
2013-05-10 15:21:00,56.0,54.0,-100.00,NW,325,0.0,0.0,91,-99.99,,,-99.99,,2013-05-10 20:21:00,
2013-05-10 15:32:00,56.0,54.0,-100.00,NW,325,0.0,0.0,91,-99.99,,,-99.99,,2013-05-10 20:32:00,
2013-05-10 15:42:00,57.0,54.0,-100.00,NNW,335,0.0,0.0,91,-99.99,,,-99.99,,2013-05-10 20:42:00,
2013-05-10 15:52:00,57.0,54.0,-100.00,NNW,335,0.0,0.0,91,-99.99,,,-99.99,,2013-05-10 20:52:00,
2013-05-10 16:02:00,57.0,54.0,-100.00,NNW,335,0.0,0.0,91,-99.99,,,-99.99,,2013-05-10 21:02:00,
2013-05-10 16:11:00,56.0,54.0,-100.00,NW,320,0.0,0.0,91,-99.99,,,-99.99,,2013-05-10 21:11:00,
2013-05-10 16:25:00,57.0,54.0,-100.00,NNW,335,0.0,0.0,91,-99.99,,,-99.99,,2013-05-10 21:25:00,
2013-05-10 16:32:00,57.0,54.0,-100.00,NNW,335,0.0,0.0,91,-99.99,,,-99.99,,2013-05-10 21:32:00,
2013-05-10 16:43:00,57.0,54.0,-100.00,NNW,335,0.0,0.0,91,-99.99,,,-99.99,,2013-05-10 21:43:00,
2013-05-10 16:53:00,56.0,54.0,-100.00,NNW,345,0.0,0.0,93,-99.99,,,-99.99,,2013-05-10 21:53:00,
2013-05-10 17:02:00,56.0,54.0,-100.00,NNW,345,0.0,0.0,93,-99.99,,,-99.99,,2013-05-10 22:02:00,
2013-05-10 17:13:00,56.0,54.0,-100.00,NNW,330,0.0,0.0,93,-99.99,,,-99.99,,2013-05-10 22:13:00,
2013-05-10 17:22:00,56.0,54.0,-100.00,NW,325,0.0,0.0,93,-99.99,,,-99.99,,2013-05-10 22:22:00,
2013-05-10 17:32:00,56.0,54.0,-100.00,NW,325,0.0,0.0,93,-99.99,,,-99.99,,2013-05-10 22:32:00,
2013-05-10 17:42:00,56.0,54.0,-100.00,NNW,335,0.0,0.0,93,-99.99,,,-99.99,,2013-05-10 22:42:00,
2013-05-10 17:52:00,55.0,54.0,-100.00,NW,325,0.0,0.0,94,-99.99,,,-99.99,,2013-05-10 22:52:00,
2013-05-10 18:02:00,55.0,54.0,-100.00,NW,325,0.0,0.0,94,-99.99,,,-99.99,,2013-05-10 23:02:00,
2013-05-10 18:12:00,55.0,54.0,-100.00,NW,325,0.0,0.0,94,-99.99,,,-99.99,,2013-05-10 23:12:00,
2013-05-10 18:22:00,55.0,54.0,-100.00,NW,320,0.0,0.0,95,-99.99,,,-99.99,,2013-05-10 23:22:00,
2013-05-10 18:33:00,55.0,54.0,-100.00,NW,320,0.0,0.0,95,-99.99,,,-99.99,,2013-05-10 23:33:00,
2013-05-10 18:42:00,55.0,53.0,-100.00,NW,320,0.0,0.0,95,-99.99,,,-99.99,,2013-05-10 23:42:00,
2013-05-10 18:52:00,55.0,54.0,-100.00,NW,320,1.0,9.0,95,-99.99,,,-99.99,,2013-05-10 23:52:00,
2013-05-10 19:02:00,55.0,54.0,-100.00,NW,320,1.0,9.0,95,-99.99,,,-99.99,,2013-05-11 00:02:00,
2013-05-10 19:11:00,55.0,54.0,-100.00,NNW,330,6.0,13.0,96,-99.99,,,-99.99,,2013-05-11 00:11:00,
2013-05-10 19:21:00,54.0,53.0,-100.00,NW,310,3.0,12.0,97,-99.99,,,-99.99,,2013-05-11 00:21:00,
2013-05-10 19:32:00,54.0,53.0,-100.00,NW,310,3.0,12.0,97,-99.99,,,-99.99,,2013-05-11 00:32:00,
2013-05-10 19:42:00,54.0,53.0,-100.00,NW,310,3.0,12.0,97,-99.99,,,-99.99,,2013-05-11 00:42:00,
2013-05-10 19:52:00,54.0,54.0,-100.00,NW,320,0.0,6.0,99,-99.99,,,-99.99,,2013-05-11 00:52:00,
2013-05-10 20:01:00,54.0,54.0,-100.00,NW,320,0.0,6.0,99,-99.99,,,-99.99,,2013-05-11 01:01:00,
2013-05-10 20:11:00,54.0,54.0,-100.00,NNW,345,4.0,14.0,99,-99.99,,,-99.99,,2013-05-11 01:11:00,
2013-05-10 20:21:00,54.0,54.0,-100.00,NW,325,2.0,9.0,99,-99.99,,,-99.99,,2013-05-11 01:21:00,
2013-05-10 20:32:00,54.0,54.0,-100.00,NW,325,2.0,9.0,99,-99.99,,,-99.99,,2013-05-11 01:32:00,
2013-05-10 20:42:00,54.0,54.0,-100.00,NNW,340,5.0,9.0,99,-99.99,,,-99.99,,2013-05-11 01:42:00,
2013-05-10 20:52:00,54.0,54.0,-100.00,NW,315,1.0,8.0,99,-99.99,,,-99.99,,2013-05-11 01:52:00,
2013-05-10 21:02:00,54.0,54.0,-100.00,NW,315,1.0,8.0,99,-99.99,,,-99.99,,2013-05-11 02:02:00,
2013-05-10 21:11:00,54.0,54.0,-100.00,NNW,335,2.0,8.0,99,-99.99,,,-99.99,,2013-05-11 02:11:00,
2013-05-10 21:22:00,54.0,54.0,-100.00,NNW,330,4.0,7.0,99,-99.99,,,-99.99,,2013-05-11 02:22:00,
2013-05-10 21:32:00,54.0,54.0,-100.00,NNW,330,4.0,7.0,99,-99.99,,,-99.99,,2013-05-11 02:32:00,
2013-05-10 21:42:00,54.0,54.0,-100.00,NW,325,1.0,5.0,99,-99.99,,,-99.99,,2013-05-11 02:42:00,
2013-05-10 21:52:00,54.0,54.0,-100.00,North,5,1.0,4.0,99,-99.99,,,-99.99,,2013-05-11 02:52:00,
2013-05-10 22:01:00,54.0,54.0,-100.00,North,5,1.0,4.0,99,-99.99,,,-99.99,,2013-05-11 03:01:00,
2013-05-10 22:11:00,54.0,54.0,-100.00,NNW,345,1.0,5.0,99,-99.99,,,-99.99,,2013-05-11 03:11:00,
2013-05-10 22:21:00,54.0,54.0,-100.00,NNW,340,1.0,6.0,99,-99.99,,,-99.99,,2013-05-11 03:21:00,
2013-05-10 22:33:00,54.0,54.0,-100.00,NNW,340,1.0,6.0,99,-99.99,,,-99.99,,2013-05-11 03:33:00,
2013-05-10 22:42:00,54.0,54.0,-100.00,NNW,345,1.0,5.0,99,-99.99,,,-99.99,,2013-05-11 03:42:00,
2013-05-10 22:53:00,54.0,54.0,-100.00,NW,325,0.0,5.0,99,-99.99,,,-99.99,,2013-05-11 03:53:00,
2013-05-10 23:02:00,54.0,54.0,-100.00,NW,325,0.0,5.0,99,-99.99,,,-99.99,,2013-05-11 04:02:00,
2013-05-10 23:12:00,54.0,54.0,-100.00,NNW,330,2.0,5.0,99,-99.99,,,-99.99,,2013-05-11 04:12:00,
2013-05-10 23:23:00,54.0,54.0,-100.00,NNW,345,0.0,4.0,99,-99.99,,,-99.99,,2013-05-11 04:23:00,
2013-05-10 23:33:00,54.0,54.0,-100.00,NNW,345,0.0,4.0,99,-99.99,,,-99.99,,2013-05-11 04:33:00,
2013-05-10 23:43:00,54.0,54.0,-100.00,NNW,340,0.0,0.0,99,-99.99,,,-99.99,,2013-05-11 04:43:00,
2013-05-10 23:52:00,54.0,54.0,-100.00,NW,305,0.0,0.0,99,-99.99,,,-99.99,,2013-05-11 04:52:00,